Zurück zum Katalog

STARLINK-36319

AktivKommunikationSSO
NORAD 67970·PAYLOAD·🇺🇸 United States

Gestartet Feb 25, 2026 von Vandenberg Space Force Base

Loading…

Nächste Überflüge (nächste 24 Stunden)

TLE

AktuellSource: CelesTrak SupGP

Epoche: Sep 14, 2026, 15:16 UTC

1 67970C 26038K   26257.63659722 -.00049146  00000+0 -15256-2 0  2573
2 67970  97.2849 266.0445 0001642  94.5263 271.2772 15.33464545    18

Verfolge STARLINK-36319 in Echtzeit mit AllMySat

Download on the App Store